,,Stat1,,Stat2,,Stat3,,Stat4,,Wind1,,Wind1,
time,status,PR1M_SUM,status,RH1M_AVG,status,SR1M_AVG,status,TA1M_AVG,status,W1dAve1m,status,W1sAve1m,
1999-10-27, 00:01:00,VALID,0,VALID,99.5069,VALID,-0.0509425,VALID,19.1373,VALID,197,VALID,1.02704,
1999-10-27, 00:02:00,VALID,0,VALID,99.5069,VALID,-0.0339617,VALID,19.1442,VALID,209,VALID,0.797931,
1999-10-27, 00:03:00,VALID,0,VALID,99.4903,VALID,0,VALID,19.1472,VALID,201,VALID,0.716283,
1999-10-27, 00:04:00,VALID,0,VALID,99.4865,VALID,-0.0339617,VALID,19.1442,VALID,204,VALID,0.892681,
1999-10-27, 00:05:00,VALID,0,VALID,99.5094,VALID,-0.0169808,VALID,19.1469,VALID,204,VALID,0.993666,
1999-10-27, 00:06:00,VALID,0,VALID,99.5437,VALID,-0.0509425,VALID,19.1537,VALID,216,VALID,1.17681,
1999-10-27, 00:07:00,VALID,0,VALID,99.5501,VALID,-0.0169808,VALID,19.1601,VALID,221,VALID,1.2474,
1999-10-27, 00:08:00,VALID,0,VALID,99.4891,VALID,-0.0169808,VALID,19.1372,VALID,213,VALID,0.945095,
1999-10-27, 00:09:00,VALID,0,VALID,99.395,VALID,-0.0169808,VALID,19.1208,VALID,213,VALID,0.889597,
1999-10-27, 00:10:00,VALID,0,VALID,99.2602,VALID,-0.0339617,VALID,19.1144,VALID,220,VALID,0.84375,
1999-10-27, 00:11:00,VALID,0,VALID,99.1457,VALID,-0.0339617,VALID,19.1275,VALID,215,VALID,1.03594,
1999-10-27, 00:12:00,VALID,0,VALID,99.1496,VALID,-0.0339617,VALID,19.1444,VALID,211,VALID,1.20813,
1999-10-27, 00:13:01,VALID,0,VALID,99.0745,VALID,0,VALID,19.1541,VALID,195,VALID,1.21727,
1999-10-27, 00:14:00,VALID,0,VALID,99.0033,VALID,0,VALID,19.1308,VALID,192,VALID,1.37973,
1999-10-27, 00:15:00,VALID,0,VALID,98.941,VALID,0,VALID,19.1442,VALID,189,VALID,1.1877,
1999-10-27, 00:16:00,VALID,0,VALID,98.8723,VALID,0,VALID,19.1273,VALID,173,VALID,0.799913,
1999-10-27, 00:17:00,VALID,0,VALID,98.7859,VALID,0,VALID,19.1176,VALID,170,VALID,0.672676,
1999-10-27, 00:18:00,VALID,0,VALID,98.6867,VALID,-0.0169808,VALID,19.0984,VALID,147,VALID,0.747255,
1999-10-27, 00:19:00,VALID,0,VALID,98.5595,VALID,0,VALID,19.0825,VALID,166,VALID,0.709375,
1999-10-27, 00:20:00,VALID,0,VALID,98.487,VALID,-0.0169808,VALID,19.0626,VALID,192,VALID,0.668069,
1999-10-27, 00:21:00,VALID,0,VALID,98.4591,VALID,0,VALID,19.0499,VALID,216,VALID,0.90076,
1999-10-27, 00:22:00,VALID,0,VALID,98.4845,VALID,-0.0169808,VALID,19.0405,VALID,227,VALID,0.886837,
1999-10-27, 00:23:00,VALID,0,VALID,98.4807,VALID,0,VALID,19.0407,VALID,226,VALID,0.985377,
1999-10-27, 00:24:00,VALID,0,VALID,98.4527,VALID,-0.0169808,VALID,19.0216,VALID,217,VALID,0.789885,
1999-10-27, 00:25:00,VALID,0,VALID,98.4146,VALID,-0.0339617,VALID,19.0049,VALID,205,VALID,0.594618,
1999-10-27, 00:26:00,VALID,0,VALID,98.3535,VALID,-0.0509425,VALID,19.0091,VALID,206,VALID,0.746429,
1999-10-27, 00:27:00,VALID,0,VALID,98.2785,VALID,-0.0679233,VALID,18.9987,VALID,211,VALID,0.827734,
1999-10-27, 00:28:00,VALID,0,VALID,98.1577,VALID,-0.0509425,VALID,19.0052,VALID,219,VALID,0.827714,
1999-10-27, 00:29:00,VALID,0,VALID,98.0509,VALID,-0.0339617,VALID,19.0186,VALID,229,VALID,0.730469,
1999-10-27, 00:30:00,VALID,0,VALID,97.9136,VALID,0,VALID,19.0315,VALID,224,VALID,0.707732,
1999-10-27, 00:31:00,VALID,0,VALID,97.8512,VALID,-0.0339617,VALID,19.0151,VALID,225,VALID,0.558811,
1999-10-27, 00:32:00,VALID,0,VALID,97.7851,VALID,0,VALID,19.0084,VALID,230,VALID,0.610777,
1999-10-27, 00:33:00,VALID,0,VALID,97.7877,VALID,-0.0509425,VALID,18.9897,VALID,240,VALID,0.517314,
1999-10-27, 00:34:00,VALID,0,VALID,97.794,VALID,-0.101885,VALID,18.9733,VALID,225,VALID,0.519215,
1999-10-27, 00:35:00,VALID,0,VALID,97.8195,VALID,-0.0509425,VALID,18.9705,VALID,217,VALID,0.507179,
1999-10-27, 00:36:00,VALID,0,VALID,97.8385,VALID,-0.0679233,VALID,18.9504,VALID,223,VALID,0.434416,
1999-10-27, 00:37:00,VALID,0,VALID,97.8411,VALID,-0.0339617,VALID,18.9574,VALID,218,VALID,0.337457,
1999-10-27, 00:38:00,VALID,0,VALID,97.8385,VALID,-0.0169808,VALID,18.9477,VALID,213,VALID,0.0202703,
1999-10-27, 00:39:00,VALID,0,VALID,97.7813,VALID,-0.0679233,VALID,18.925,VALID,209,VALID,0,
1999-10-27, 00:40:00,VALID,0,VALID,97.7915,VALID,-0.0509425,VALID,18.9156,VALID,208,VALID,0,
1999-10-27, 00:41:00,VALID,0,VALID,97.8996,VALID,-0.0679233,VALID,18.9089,VALID,207,VALID,0,
1999-10-27, 00:42:00,VALID,0,VALID,97.8754,VALID,-0.0849042,VALID,18.9026,VALID,207,VALID,0,
1999-10-27, 00:43:00,VALID,0,VALID,97.7381,VALID,-0.0509425,VALID,18.8828,VALID,207,VALID,0,
1999-10-27, 00:44:00,VALID,0,VALID,97.5969,VALID,-0.101885,VALID,18.841,VALID,207,VALID,0,
1999-10-27, 00:45:00,VALID,0,VALID,97.6707,VALID,-0.0679233,VALID,18.8019,VALID,206,VALID,0,
1999-10-27, 00:46:00,VALID,0,VALID,97.8004,VALID,-0.0849042,VALID,18.7728,VALID,171,VALID,0,
1999-10-27, 00:47:00,VALID,0,VALID,97.8945,VALID,-0.0339617,VALID,18.7345,VALID,179,VALID,0,
1999-10-27, 00:48:00,VALID,0,VALID,98.1361,VALID,-0.0169808,VALID,18.7121,VALID,187,VALID,0.337993,
1999-10-27, 00:49:00,VALID,0,VALID,98.4349,VALID,-0.0169808,VALID,18.7149,VALID,195,VALID,1.11904,
1999-10-27, 00:50:00,VALID,0,VALID,98.4616,VALID,-0.0339617,VALID,18.7673,VALID,193,VALID,1.27513,
1999-10-27, 00:51:00,VALID,0,VALID,98.3154,VALID,-0.0509425,VALID,18.8056,VALID,185,VALID,1.26731,
1999-10-27, 00:52:00,VALID,0,VALID,98.117,VALID,-0.0509425,VALID,18.8255,VALID,182,VALID,1.18641,
1999-10-27, 00:53:00,VALID,0,VALID,97.9949,VALID,-0.0509425,VALID,18.8447,VALID,171,VALID,1.19466,
1999-10-27, 00:54:00,VALID,0,VALID,97.8144,VALID,-0.0849042,VALID,18.8313,VALID,152,VALID,1.1433,
1999-10-27, 00:55:00,VALID,0,VALID,97.7266,VALID,-0.0509425,VALID,18.8544,VALID,138,VALID,1.41201,
1999-10-27, 00:56:00,VALID,0,VALID,97.5486,VALID,-0.0679233,VALID,18.822,VALID,129,VALID,1.03304,
1999-10-27, 00:57:00,VALID,0,VALID,97.7037,VALID,-0.0339617,VALID,18.8056,VALID,115,VALID,0.968149,
1999-10-27, 00:58:00,VALID,0,VALID,97.9759,VALID,-0.0679233,VALID,18.819,VALID,141,VALID,1.12141,
1999-10-27, 00:59:00,VALID,0,VALID,98.0725,VALID,-0.0849042,VALID,18.8218,VALID,152,VALID,0.756168,
1999-10-27, 01:00:00,VALID,0,VALID,98.0178,VALID,-0.0339617,VALID,18.7992,VALID,158,VALID,0.994336,
1999-10-27, 01:01:00,VALID,0,VALID,98.014,VALID,-0.0849042,VALID,18.8061,VALID,173,VALID,0.878689,
1999-10-27, 01:02:00,VALID,0,VALID,98.056,VALID,-0.101885,VALID,18.7959,VALID,171,VALID,1.07953,
1999-10-27, 01:03:00,VALID,0,VALID,98.0255,VALID,-0.0339617,VALID,18.7932,VALID,187,VALID,0.829392,
1999-10-27, 01:04:00,VALID,0,VALID,97.9441,VALID,-0.0509425,VALID,18.7765,VALID,190,VALID,0.899219,
1999-10-27, 01:05:00,VALID,0,VALID,97.9581,VALID,-0.0509425,VALID,18.7671,VALID,194,VALID,0.769231,
1999-10-27, 01:06:00,VALID,0,VALID,97.9441,VALID,-0.0679233,VALID,18.7541,VALID,211,VALID,0.502956,
1999-10-27, 01:07:01,VALID,0,VALID,98.0865,VALID,-0.0339617,VALID,18.734,VALID,208,VALID,0.793324,
1999-10-27, 01:08:01,VALID,0,VALID,98.1997,VALID,-0.0509425,VALID,18.7149,VALID,174,VALID,0.625801,
1999-10-27, 01:09:00,VALID,0,VALID,98.1552,VALID,-0.0339617,VALID,18.686,VALID,166,VALID,0.409745,
1999-10-27, 01:10:00,VALID,0,VALID,98.2327,VALID,-0.0339617,VALID,18.6664,VALID,164,VALID,0.406033,
1999-10-27, 01:11:00,VALID,0,VALID,98.4324,VALID,-0.0169808,VALID,18.6666,VALID,166,VALID,0.463616,
1999-10-27, 01:12:00,VALID,0,VALID,98.6447,VALID,-0.0169808,VALID,18.6758,VALID,172,VALID,0.214062,
1999-10-27, 01:13:00,VALID,0,VALID,98.7096,VALID,-0.0339617,VALID,18.6763,VALID,149,VALID,0,
1999-10-27, 01:14:00,VALID,0,VALID,98.6981,VALID,-0.0679233,VALID,18.6574,VALID,144,VALID,0,
1999-10-27, 01:15:00,VALID,0,VALID,98.7134,VALID,-0.0679233,VALID,18.6474,VALID,154,VALID,0,
1999-10-27, 01:16:00,VALID,0,VALID,98.7833,VALID,-0.0169808,VALID,18.6412,VALID,168,VALID,0,
1999-10-27, 01:17:00,VALID,0,VALID,98.8838,VALID,-0.0169808,VALID,18.637,VALID,167,VALID,0.474359,
1999-10-27, 01:18:00,VALID,0,VALID,99.0046,VALID,-0.0339617,VALID,18.6502,VALID,174,VALID,0.514358,
1999-10-27, 01:19:01,VALID,0,VALID,99.0351,VALID,-0.0169808,VALID,18.6266,VALID,176,VALID,0.605152,
1999-10-27, 01:20:00,VALID,0,VALID,99.1,VALID,0.0169808,VALID,18.6437,VALID,177,VALID,0.725084,
1999-10-27, 01:21:00,VALID,0,VALID,99.1457,VALID,0,VALID,18.647,VALID,179,VALID,0.7169,
1999-10-27, 01:22:00,VALID,0,VALID,99.1737,VALID,-0.0339617,VALID,18.6502,VALID,201,VALID,0.716146,
1999-10-27, 01:23:00,VALID,0,VALID,99.2373,VALID,0,VALID,18.6467,VALID,203,VALID,0.901182,
1999-10-27, 01:24:00,VALID,0,VALID,99.2576,VALID,0,VALID,18.647,VALID,204,VALID,0.71875,
1999-10-27, 01:25:00,VALID,0,VALID,99.2271,VALID,0,VALID,18.6472,VALID,203,VALID,0.560594,
1999-10-27, 01:26:00,VALID,0,VALID,99.2437,VALID,0,VALID,18.6206,VALID,196,VALID,0.665582,
1999-10-27, 01:27:00,VALID,0,VALID,99.2831,VALID,0,VALID,18.6239,VALID,195,VALID,0.70957,
1999-10-27, 01:28:00,VALID,0,VALID,99.2538,VALID,0,VALID,18.6144,VALID,174,VALID,0.546053,
1999-10-27, 01:29:00,VALID,0,VALID,98.9664,VALID,0,VALID,18.5206,VALID,139,VALID,0.643792,
1999-10-27, 01:30:00,VALID,0,VALID,98.7388,VALID,0,VALID,18.4631,VALID,130,VALID,0.410156,
1999-10-27, 01:31:00,VALID,0,VALID,98.7121,VALID,0,VALID,18.4267,VALID,140,VALID,0.470703,
1999-10-27, 01:32:00,VALID,0,VALID,98.6702,VALID,0.0169808,VALID,18.4045,VALID,167,VALID,0.584535,
1999-10-27, 01:33:00,VALID,0,VALID,98.9346,VALID,-0.0509425,VALID,18.4241,VALID,189,VALID,0.734169,
1999-10-27, 01:34:00,VALID,0,VALID,99.1508,VALID,-0.0169808,VALID,18.4597,VALID,191,VALID,0.793174,
1999-10-27, 01:35:00,VALID,0,VALID,99.1915,VALID,-0.0169808,VALID,18.4885,VALID,193,VALID,0.798564,
1999-10-27, 01:36:00,VALID,0,VALID,99.1801,VALID,-0.0339617,VALID,18.5116,VALID,194,VALID,0.647615,
1999-10-27, 01:37:00,VALID,0,VALID,99.1699,VALID,0,VALID,18.534,VALID,190,VALID,0.97309,
1999-10-27, 01:38:00,VALID,0,VALID,99.0834,VALID,-0.0169808,VALID,18.547,VALID,194,VALID,0.971137,
1999-10-27, 01:39:00,VALID,0,VALID,99.0148,VALID,-0.0169808,VALID,18.5567,VALID,192,VALID,1.05243,
1999-10-27, 01:40:00,VALID,0,VALID,99.0084,VALID,-0.0169808,VALID,18.5691,VALID,187,VALID,1.32463,
1999-10-27, 01:41:01,VALID,0,VALID,98.852,VALID,0,VALID,18.5823,VALID,189,VALID,1.12634,
1999-10-27, 01:42:00,VALID,0,VALID,98.7757,VALID,0,VALID,18.5788,VALID,178,VALID,0.910857,
1999-10-27, 01:43:00,VALID,0,VALID,98.7566,VALID,-0.0509425,VALID,18.5925,VALID,171,VALID,0.877534,
1999-10-27, 01:44:00,VALID,0,VALID,98.6498,VALID,-0.0169808,VALID,18.5467,VALID,162,VALID,0.924137,
1999-10-27, 01:45:00,VALID,0,VALID,98.6816,VALID,-0.0339617,VALID,18.5373,VALID,191,VALID,1.15801,
1999-10-27, 01:46:00,VALID,0,VALID,98.7846,VALID,0,VALID,18.5504,VALID,201,VALID,1.48481,
1999-10-27, 01:47:00,VALID,0,VALID,98.8037,VALID,0,VALID,18.5599,VALID,206,VALID,1.05829,
1999-10-27, 01:48:00,VALID,0,VALID,98.7693,VALID,-0.0169808,VALID,18.5502,VALID,218,VALID,1.36254,
1999-10-27, 01:49:00,VALID,0,VALID,98.8469,VALID,0,VALID,18.5664,VALID,211,VALID,1.30918,
1999-10-27, 01:50:00,VALID,0,VALID,98.8851,VALID,-0.0509425,VALID,18.5798,VALID,219,VALID,1.17688,
1999-10-27, 01:51:00,VALID,0,VALID,98.941,VALID,-0.0169808,VALID,18.5858,VALID,219,VALID,1.09924,
1999-10-27, 01:52:01,VALID,0,VALID,99.0008,VALID,0,VALID,18.586,VALID,220,VALID,1.13542,
1999-10-27, 01:53:00,VALID,0,VALID,99.0644,VALID,0,VALID,18.5823,VALID,230,VALID,0.404447,
1999-10-27, 01:54:00,VALID,0,VALID,99.1368,VALID,-0.0169808,VALID,18.5892,VALID,213,VALID,0.886924,
1999-10-27, 01:55:00,VALID,0,VALID,99.1737,VALID,0,VALID,18.5855,VALID,209,VALID,0.705512,
1999-10-27, 01:56:00,VALID,0,VALID,99.2347,VALID,0,VALID,18.5661,VALID,204,VALID,0.729464,
1999-10-27, 01:57:00,VALID,0,VALID,99.2869,VALID,-0.0169808,VALID,18.5691,VALID,202,VALID,0.528711,
1999-10-27, 01:58:00,VALID,0,VALID,99.3466,VALID,0,VALID,18.5728,VALID,223,VALID,0.45847,
1999-10-27, 01:59:00,VALID,0,VALID,99.3823,VALID,-0.0169808,VALID,18.5892,VALID,216,VALID,0.557075,
1999-10-27, 02:00:00,VALID,0,VALID,99.4013,VALID,0,VALID,18.589,VALID,225,VALID,0.470954,
1999-10-27, 02:01:00,VALID,0,VALID,99.4217,VALID,0,VALID,18.5788,VALID,233,VALID,0.239366,
1999-10-27, 02:02:00,VALID,0,VALID,99.4547,VALID,0,VALID,18.5821,VALID,227,VALID,0.0659055,
1999-10-27, 02:03:01,VALID,0,VALID,99.4624,VALID,0,VALID,18.5788,VALID,221,VALID,0.428843,
1999-10-27, 02:04:00,VALID,0,VALID,99.5183,VALID,-0.0169808,VALID,18.5825,VALID,233,VALID,0,
1999-10-27, 02:05:00,VALID,0,VALID,99.5336,VALID,0,VALID,18.5689,VALID,222,VALID,0,
1999-10-27, 02:06:00,VALID,0,VALID,99.5514,VALID,0,VALID,18.5825,VALID,225,VALID,0,
1999-10-27, 02:07:00,VALID,0,VALID,99.5514,VALID,0,VALID,18.5761,VALID,212,VALID,0,
1999-10-27, 02:08:00,VALID,0,VALID,99.531,VALID,-0.0169808,VALID,18.5726,VALID,193,VALID,0,
1999-10-27, 02:09:00,VALID,0,VALID,99.4967,VALID,-0.0169808,VALID,18.5731,VALID,185,VALID,0,
1999-10-27, 02:10:00,VALID,0,VALID,99.428,VALID,0,VALID,18.5627,VALID,192,VALID,0.543826,
1999-10-27, 02:11:00,VALID,0,VALID,99.353,VALID,0,VALID,18.5823,VALID,194,VALID,0.604601,
1999-10-27, 02:12:00,VALID,0,VALID,99.278,VALID,0,VALID,18.5992,VALID,202,VALID,0.551953,
1999-10-27, 02:13:00,VALID,0,VALID,99.2233,VALID,-0.0169808,VALID,18.6116,VALID,187,VALID,0.0814145,
1999-10-27, 02:14:01,VALID,0,VALID,99.0872,VALID,-0.0169808,VALID,18.634,VALID,192,VALID,0.195313,
1999-10-27, 02:15:00,VALID,0,VALID,98.913,VALID,-0.0339617,VALID,18.6373,VALID,178,VALID,0.70918,
1999-10-27, 02:16:00,VALID,0,VALID,98.8024,VALID,0,VALID,18.6601,VALID,173,VALID,0.607178,
1999-10-27, 02:17:00,VALID,0.2,VALID,98.6956,VALID,0,VALID,18.6761,VALID,177,VALID,0.561899,
1999-10-27, 02:18:00,VALID,0,VALID,98.557,VALID,0,VALID,18.6763,VALID,189,VALID,0.482113,
1999-10-27, 02:19:00,VALID,0,VALID,98.4781,VALID,0,VALID,18.6661,VALID,199,VALID,0.406044,
1999-10-27, 02:20:00,VALID,0,VALID,98.4031,VALID,-0.0339617,VALID,18.6825,VALID,180,VALID,0,
1999-10-27, 02:21:00,VALID,0,VALID,98.3256,VALID,-0.0169808,VALID,18.6925,VALID,153,VALID,0,
1999-10-27, 02:22:00,VALID,0,VALID,98.2963,VALID,0,VALID,18.6895,VALID,136,VALID,0,
1999-10-27, 02:23:00,VALID,0,VALID,98.2849,VALID,0,VALID,18.6537,VALID,130,VALID,0.638455,
1999-10-27, 02:24:00,VALID,0,VALID,98.3167,VALID,-0.0509425,VALID,18.6377,VALID,123,VALID,0.916324,
1999-10-27, 02:25:01,VALID,0,VALID,98.3472,VALID,0,VALID,18.6119,VALID,118,VALID,0.925781,
1999-10-27, 02:26:00,VALID,0,VALID,98.4057,VALID,-0.0509425,VALID,18.589,VALID,111,VALID,0.889286,
1999-10-27, 02:27:00,VALID,0,VALID,98.501,VALID,0,VALID,18.5691,VALID,129,VALID,0.692308,
1999-10-27, 02:28:00,VALID,0,VALID,98.5239,VALID,-0.0339617,VALID,18.5435,VALID,138,VALID,0.663218,
1999-10-27, 02:29:00,VALID,0,VALID,98.5303,VALID,-0.0169808,VALID,18.5308,VALID,149,VALID,0.812089,
1999-10-27, 02:30:00,VALID,0,VALID,98.6015,VALID,-0.0169808,VALID,18.5142,VALID,160,VALID,0.835547,
1999-10-27, 02:31:00,VALID,0,VALID,98.6485,VALID,-0.0339617,VALID,18.5213,VALID,161,VALID,0.716797,
1999-10-27, 02:32:00,VALID,0,VALID,98.6943,VALID,-0.0679233,VALID,18.5112,VALID,158,VALID,0.473558,
1999-10-27, 02:33:00,VALID,0,VALID,98.7108,VALID,-0.0509425,VALID,18.5082,VALID,149,VALID,0.541807,
1999-10-27, 02:34:00,VALID,0,VALID,98.7528,VALID,0.0169808,VALID,18.5181,VALID,144,VALID,0.73125,
1999-10-27, 02:35:00,VALID,0,VALID,98.7668,VALID,-0.0169808,VALID,18.5176,VALID,151,VALID,0.549279,
1999-10-27, 02:36:00,VALID,0,VALID,98.7782,VALID,0,VALID,18.5146,VALID,161,VALID,0.487331,
1999-10-27, 02:37:00,VALID,0,VALID,98.7541,VALID,-0.0339617,VALID,18.5079,VALID,173,VALID,0.390152,
1999-10-27, 02:38:00,VALID,0,VALID,98.7833,VALID,-0.0169808,VALID,18.5146,VALID,207,VALID,0.315505,
1999-10-27, 02:39:00,VALID,0,VALID,98.8278,VALID,-0.0169808,VALID,18.5276,VALID,209,VALID,0.0123355,
1999-10-27, 02:40:00,VALID,0,VALID,98.852,VALID,-0.0169808,VALID,18.5375,VALID,209,VALID,0,
1999-10-27, 02:41:00,VALID,0,VALID,98.8838,VALID,0,VALID,18.534,VALID,209,VALID,0,
1999-10-27, 02:42:00,VALID,0,VALID,98.9003,VALID,0,VALID,18.5502,VALID,203,VALID,0,
1999-10-27, 02:43:00,VALID,0,VALID,98.9321,VALID,0,VALID,18.5601,VALID,192,VALID,0,
1999-10-27, 02:44:00,VALID,0,VALID,98.9258,VALID,-0.0169808,VALID,18.5661,VALID,182,VALID,0.0125868,
1999-10-27, 02:45:00,VALID,0,VALID,98.8863,VALID,0.0169808,VALID,18.556,VALID,181,VALID,0.663862,
1999-10-27, 02:46:00,VALID,0,VALID,98.8812,VALID,-0.0169808,VALID,18.5597,VALID,161,VALID,0.544271,
1999-10-27, 02:47:00,VALID,0,VALID,98.8787,VALID,0,VALID,18.5659,VALID,151,VALID,0.663261,
1999-10-27, 02:48:00,VALID,0,VALID,98.8431,VALID,-0.0169808,VALID,18.55,VALID,149,VALID,0.80511,
1999-10-27, 02:49:00,VALID,0,VALID,98.8494,VALID,0,VALID,18.5467,VALID,149,VALID,0.869721,
1999-10-27, 02:50:00,VALID,0,VALID,98.8507,VALID,0,VALID,18.5532,VALID,150,VALID,0.95038,
1999-10-27, 02:51:00,VALID,0,VALID,98.8126,VALID,-0.0169808,VALID,18.5502,VALID,151,VALID,0.858141,
1999-10-27, 02:52:00,VALID,0,VALID,98.7299,VALID,-0.0169808,VALID,18.5276,VALID,144,VALID,0.442491,
1999-10-27, 02:53:00,VALID,0,VALID,98.7223,VALID,-0.0169808,VALID,18.4982,VALID,140,VALID,0.311655,
1999-10-27, 02:54:00,VALID,0,VALID,98.7732,VALID,-0.0169808,VALID,18.5082,VALID,129,VALID,0,
1999-10-27, 02:55:00,VALID,0,VALID,98.7719,VALID,-0.0339617,VALID,18.492,VALID,129,VALID,0,
1999-10-27, 02:56:00,VALID,0,VALID,98.8202,VALID,-0.0339617,VALID,18.4828,VALID,122,VALID,0,
1999-10-27, 02:57:00,VALID,0,VALID,98.8634,VALID,-0.0169808,VALID,18.4788,VALID,117,VALID,0,
1999-10-27, 02:58:00,VALID,0,VALID,98.9029,VALID,-0.0509425,VALID,18.4888,VALID,117,VALID,0,
1999-10-27, 02:59:00,VALID,0,VALID,98.9436,VALID,-0.0169808,VALID,18.5079,VALID,117,VALID,0,
1999-10-27, 03:00:00,VALID,0,VALID,98.9614,VALID,-0.0169808,VALID,18.5114,VALID,117,VALID,0,
1999-10-27, 03:01:00,VALID,0,VALID,98.9499,VALID,-0.0169808,VALID,18.5146,VALID,117,VALID,0,
1999-10-27, 03:02:00,VALID,0,VALID,98.9346,VALID,-0.0169808,VALID,18.5082,VALID,117,VALID,0,
1999-10-27, 03:03:00,VALID,0,VALID,98.8634,VALID,-0.0169808,VALID,18.4955,VALID,117,VALID,0,
1999-10-27, 03:04:00,VALID,0,VALID,98.8393,VALID,0,VALID,18.4622,VALID,117,VALID,0,
1999-10-27, 03:05:00,VALID,0,VALID,98.7604,VALID,-0.0169808,VALID,18.4405,VALID,117,VALID,0,
1999-10-27, 03:06:00,VALID,0,VALID,98.7821,VALID,0,VALID,18.4273,VALID,117,VALID,0,
1999-10-27, 03:07:00,VALID,0,VALID,98.8151,VALID,-0.0679233,VALID,18.4146,VALID,117,VALID,0,
1999-10-27, 03:08:00,VALID,0,VALID,98.8596,VALID,-0.0169808,VALID,18.4174,VALID,117,VALID,0,
1999-10-27, 03:09:00,VALID,0,VALID,98.8965,VALID,-0.0169808,VALID,18.4109,VALID,117,VALID,0,
1999-10-27, 03:10:00,VALID,0,VALID,98.88,VALID,0,VALID,18.4109,VALID,117,VALID,0,
1999-10-27, 03:11:00,VALID,0,VALID,98.8711,VALID,0,VALID,18.4176,VALID,117,VALID,0,
1999-10-27, 03:12:00,VALID,0,VALID,98.8075,VALID,0,VALID,18.392,VALID,117,VALID,0,
1999-10-27, 03:13:00,VALID,0,VALID,98.7032,VALID,0,VALID,18.3428,VALID,117,VALID,0,
1999-10-27, 03:14:00,VALID,0,VALID,98.7363,VALID,-0.0339617,VALID,18.3368,VALID,89,VALID,0,
1999-10-27, 03:15:00,VALID,0,VALID,98.9448,VALID,0,VALID,18.3724,VALID,21,VALID,0,
1999-10-27, 03:16:00,VALID,0,VALID,99.1127,VALID,0,VALID,18.4114,VALID,319,VALID,0,
1999-10-27, 03:17:00,VALID,0,VALID,99.1712,VALID,-0.0169808,VALID,18.4273,VALID,320,VALID,0,
1999-10-27, 03:18:00,VALID,0,VALID,99.1826,VALID,0.0169808,VALID,18.4338,VALID,320,VALID,0,
1999-10-27, 03:19:01,VALID,0,VALID,99.1343,VALID,0,VALID,18.4079,VALID,320,VALID,0,
1999-10-27, 03:20:00,VALID,0,VALID,99.1839,VALID,0,VALID,18.4179,VALID,320,VALID,0,
1999-10-27, 03:21:00,VALID,0,VALID,99.1559,VALID,0,VALID,18.4017,VALID,318,VALID,0,
1999-10-27, 03:22:00,VALID,0,VALID,99.0071,VALID,-0.0169808,VALID,18.3465,VALID,229,VALID,0,
1999-10-27, 03:23:00,VALID,0,VALID,98.8291,VALID,0,VALID,18.2876,VALID,165,VALID,0,
1999-10-27, 03:24:00,VALID,0,VALID,98.9664,VALID,0,VALID,18.3013,VALID,165,VALID,0,
1999-10-27, 03:25:00,VALID,0,VALID,99.0707,VALID,-0.0169808,VALID,18.3269,VALID,165,VALID,0,
1999-10-27, 03:26:00,VALID,0,VALID,99.03,VALID,-0.0169808,VALID,18.3142,VALID,159,VALID,0,
1999-10-27, 03:27:00,VALID,0,VALID,98.9219,VALID,-0.0169808,VALID,18.2754,VALID,156,VALID,0,
1999-10-27, 03:28:00,VALID,0,VALID,98.955,VALID,0,VALID,18.2625,VALID,156,VALID,0,
1999-10-27, 03:29:00,VALID,0,VALID,98.9855,VALID,0,VALID,18.2525,VALID,156,VALID,0,
1999-10-27, 03:30:00,VALID,0,VALID,98.9321,VALID,-0.0169808,VALID,18.2232,VALID,156,VALID,0,
1999-10-27, 03:31:00,VALID,0,VALID,98.9194,VALID,0,VALID,18.2239,VALID,156,VALID,0,
1999-10-27, 03:32:00,VALID,0,VALID,98.9079,VALID,0,VALID,18.2107,VALID,156,VALID,0,
1999-10-27, 03:33:00,VALID,0,VALID,98.9537,VALID,-0.0169808,VALID,18.2043,VALID,154,VALID,0,
1999-10-27, 03:34:00,VALID,0,VALID,99.0237,VALID,-0.0169808,VALID,18.2174,VALID,124,VALID,0,
1999-10-27, 03:35:00,VALID,0,VALID,99.0478,VALID,0,VALID,18.2299,VALID,120,VALID,0,
1999-10-27, 03:36:00,VALID,0,VALID,99.0313,VALID,0,VALID,18.2431,VALID,114,VALID,0,
1999-10-27, 03:37:00,VALID,0,VALID,99.0046,VALID,0,VALID,18.2495,VALID,119,VALID,0.149523,
1999-10-27, 03:38:00,VALID,0,VALID,98.9423,VALID,-0.0339617,VALID,18.2567,VALID,114,VALID,0.416807,
1999-10-27, 03:39:00,VALID,0,VALID,98.8978,VALID,-0.0169808,VALID,18.2433,VALID,113,VALID,0.424479,
1999-10-27, 03:40:00,VALID,0,VALID,98.8406,VALID,-0.0339617,VALID,18.2306,VALID,113,VALID,0.257241,
1999-10-27, 03:41:00,VALID,0,VALID,98.8329,VALID,-0.0339617,VALID,18.2144,VALID,113,VALID,0,
1999-10-27, 03:42:00,VALID,0,VALID,98.9258,VALID,-0.0169808,VALID,18.2435,VALID,116,VALID,0,
1999-10-27, 03:43:00,VALID,0,VALID,99.0682,VALID,-0.0339617,VALID,18.2666,VALID,132,VALID,0,
1999-10-27, 03:44:00,VALID,0,VALID,99.0478,VALID,-0.0339617,VALID,18.2722,VALID,146,VALID,0,
1999-10-27, 03:45:00,VALID,0,VALID,99.0313,VALID,-0.0339617,VALID,18.2862,VALID,156,VALID,0,
1999-10-27, 03:46:00,VALID,0,VALID,98.9474,VALID,-0.0339617,VALID,18.2632,VALID,163,VALID,0,
1999-10-27, 03:47:00,VALID,0,VALID,98.8113,VALID,-0.0169808,VALID,18.2472,VALID,169,VALID,0,
1999-10-27, 03:48:00,VALID,0,VALID,98.7528,VALID,-0.0169808,VALID,18.211,VALID,175,VALID,0,
1999-10-27, 03:49:00,VALID,0,VALID,98.7426,VALID,-0.0339617,VALID,18.2077,VALID,176,VALID,0,
1999-10-27, 03:50:00,VALID,0,VALID,98.7693,VALID,-0.0169808,VALID,18.1916,VALID,176,VALID,0,
1999-10-27, 03:51:00,VALID,0,VALID,98.7515,VALID,0,VALID,18.1886,VALID,176,VALID,0,
1999-10-27, 03:52:00,VALID,0,VALID,98.7274,VALID,0,VALID,18.159,VALID,176,VALID,0,
1999-10-27, 03:53:00,VALID,0,VALID,98.6498,VALID,-0.0169808,VALID,18.1334,VALID,176,VALID,0,
1999-10-27, 03:54:00,VALID,0,VALID,98.6384,VALID,-0.0339617,VALID,18.1341,VALID,176,VALID,0,
1999-10-27, 03:55:00,VALID,0,VALID,98.8113,VALID,-0.0169808,VALID,18.1495,VALID,178,VALID,0,
1999-10-27, 03:56:00,VALID,0,VALID,98.8698,VALID,-0.0339617,VALID,18.1597,VALID,183,VALID,0,
1999-10-27, 03:57:00,VALID,0,VALID,98.7477,VALID,0,VALID,18.1403,VALID,181,VALID,0,
1999-10-27, 03:58:00,VALID,0,VALID,98.585,VALID,-0.0169808,VALID,18.0752,VALID,179,VALID,0,
1999-10-27, 03:59:00,VALID,0,VALID,98.543,VALID,-0.0509425,VALID,18.056,VALID,142,VALID,0,
1999-10-27, 04:00:00,VALID,0,VALID,98.5061,VALID,-0.0509425,VALID,18.0369,VALID,141,VALID,0,
1999-10-27, 04:01:00,VALID,0,VALID,98.8062,VALID,0,VALID,18.0918,VALID,141,VALID,0,
1999-10-27, 04:02:00,VALID,0,VALID,98.8164,VALID,-0.0169808,VALID,18.0729,VALID,134,VALID,0,
1999-10-27, 04:03:00,VALID,0,VALID,98.6956,VALID,-0.0339617,VALID,18.0172,VALID,111,VALID,0,
1999-10-27, 04:04:00,VALID,0,VALID,98.6104,VALID,-0.0509425,VALID,17.9854,VALID,96,VALID,0,
1999-10-27, 04:05:00,VALID,0,VALID,98.7426,VALID,-0.0679233,VALID,17.9854,VALID,84,VALID,0,
1999-10-27, 04:06:00,VALID,0,VALID,98.9308,VALID,-0.0679233,VALID,18.0047,VALID,93,VALID,0,
1999-10-27, 04:07:00,VALID,0,VALID,99.0415,VALID,-0.0169808,VALID,18.0075,VALID,96,VALID,0,
1999-10-27, 04:08:00,VALID,0,VALID,99.161,VALID,-0.0679233,VALID,18.0401,VALID,104,VALID,0,
1999-10-27, 04:09:00,VALID,0,VALID,99.3047,VALID,-0.0509425,VALID,18.0893,VALID,101,VALID,0,
1999-10-27, 04:10:00,VALID,0,VALID,99.395,VALID,-0.0339617,VALID,18.1241,VALID,93,VALID,0,
1999-10-27, 04:11:00,VALID,0,VALID,99.4039,VALID,-0.0679233,VALID,18.1177,VALID,85,VALID,0,